[[{"header":{"parameterUnit":"m.s-1","parameterCategory":2,"la1":30.2991,"la2":30.254,"lo1":-89.0895,"lo2":-89.0444,"dy":0.0017,"dx":0.0017,"nx":28,"ny":28,"refTime":"2024-06-01T03:00:00:Z","depth":"0","parameterNumber":2,"parameterNumberName":"U-component_of_CURRENTS"},"data":[0,0,0,0,0,0,0,0,0,0,0,0,0,0,0,0,0,0,0,0,0,0,0,0,0,0,0,0,0,0,0,0,0,0,0,0,0,0,0,0,0,0,0,0,0,0,0,0,0,0,0,0,0,0,0,0,0,0,0.1451,0.1451,0,0.1399,0.1398,0.1397,0.1371,0.1371,0.1372,0.1372,0.132,0.1318,0.1317,0,0,0,0,0,0,0,0,0,0,0,0,0,0.1483,0.1483,0.1451,0.1451,0.145,0.1399,0.1398,0.1397,0.1371,0.1371,0.1372,0.1372,0.1321,0.1319,0.1317,0,0,0,0,0,0,0,0,0,0,0,0,0,0.1451,0.1483,0.1451,0.1434,0.1432,0.1399,0.1398,0.1397,0.1371,0.1371,0.1372,0.1372,0.1321,0.1319,0.1316,0.1291,0,0,0.1309,0.1308,0,0,0,0,0,0,0,0,0.1453,0.1449,0.1437,0.1435,0.1433,0.1395,0.139,0.1363,0.1371,0.139,0.1372,0.1372,0.1347,0.1343,0.1327,0.1289,0.1287,0.1308,0.1307,0.1306,0.1305,0,0,0,0,0,0,0,0.1455,0.1451,0.1427,0.1437,0.1434,0.1414,0.141,0.1385,0.1364,0.1389,0.1387,0.1387,0.1346,0.1329,0.1325,0.1286,0.1308,0.1306,0.1305,0.1304,0.1245,0.1245,0,0,0,0,0,0,0.147,0.1453,0.1428,0.1426,0.1448,0.1413,0.1408,0.1404,0.1364,0.136,0.1387,0.1386,0.1333,0.1328,0.1323,0.1335,0.1306,0.1303,0.1302,0.1245,0.1245,0.1245,0,0,0,0,0,0,0.1471,0.1468,0.1431,0.1441,0.1436,0.1413,0.1407,0.1403,0.1397,0.1363,0.1358,0.1389,0.1333,0.1327,0.1307,0.1331,0.1302,0.13,0.1245,0.1245,0.1245,0.133,0,0,0,0,0,0,0.1472,0.1469,0.1468,0.1442,0.1436,0.1425,0.1407,0.1401,0.1398,0.1396,0.1363,0.1358,0.1333,0.1311,0.1305,0.1327,0.1298,0.1245,0.1245,0.1245,0.1328,0.1333,0.1338,0,0,0,0,0,0.1473,0.1483,0.1468,0.1465,0.1436,0.1426,0.1421,0.1403,0.1398,0.1399,0.1372,0.136,0.1306,0.1309,0.1301,0.1324,0.1245,0.1245,0.1245,0.1325,0.1332,0.1338,0,0,0,0,0,0,0.1491,0.148,0.1464,0.1467,0.1451,0.1423,0.1431,0.1411,0.1389,0.1394,0.1355,0.1348,0.1337,0.1312,0.1316,0.1303,0.1275,0.1273,0.1338,0.1344,0.135,0.1398,0.1296,0,0,0,0,0,0.1494,0.1502,0.148,0.1481,0.1483,0.1455,0.1449,0.1436,0.1416,0.1407,0.1383,0.1355,0.1327,0.1323,0.1292,0.1288,0.1311,0.1296,0.1301,0.1306,0.1338,0.1365,0.1377,0.1244,0.1244,0.1244,0,0,0.1505,0.1497,0.1502,0.1486,0.1478,0.1487,0.1453,0.1458,0.1467,0.1405,0.1414,0.1369,0.1326,0.1318,0.1313,0.1306,0.1362,0.1306,0.1311,0.1341,0.1366,0.138,0.1392,0.1244,0.1244,0.1244,0,0,0.1537,0.1523,0.1546,0.1541,0.1535,0.1518,0.1525,0.1505,0.1502,0.1495,0.1449,0.1423,0.139,0.1363,0.1345,0.1359,0.138,0.1347,0.1427,0.1452,0.1465,0.1476,0.156,0.1578,0.136,0.136,0.136,0,0.1548,0.1558,0.1548,0.1568,0.1568,0.154,0.1557,0.1556,0.1529,0.1531,0.1515,0.1465,0.1417,0.1413,0.1415,0.1376,0.1418,0.141,0.1464,0.1475,0.1485,0.1568,0.1587,0.1364,0.1364,0.1363,0.1363,0,0.1592,0.1601,0.162,0.1632,0.1634,0.1643,0.1641,0.1647,0.1637,0.1626,0.1624,0.1565,0.1541,0.1513,0.1471,0.1508,0.1526,0.1463,0.146,0.1505,0.1588,0.1607,0.137,0.1369,0.1367,0.1366,0,0,0.1604,0.1641,0.1643,0.1655,0.1662,0.1665,0.1702,0.1709,0.1734,0.1724,0.1758,0.17,0.1678,0.1656,0.1598,0.1618,0.1714,0.1587,0.1586,0.1696,0.1837,0.1851,0.1872,0.1669,0.1671,0.1673,0.1882,0,0.163,0.1672,0.1682,0.1716,0.1736,0.1734,0.1764,0.1776,0.1784,0.1816,0.1794,0.1794,0.1733,0.172,0.1738,0.1703,0.1761,0.1668,0.1757,0.1761,0.1787,0.1892,0.1853,0.2036,0.19,0.1903,0.1905,0,0.1651,0.1677,0.1715,0.1749,0.1759,0.1778,0.1811,0.1834,0.1881,0.1893,0.192,0.1912,0.1944,0.1873,0.1932,0.1883,0.1888,0.1875,0.1881,0.1881,0.1808,0.1958,0.2073,0.2043,0.1932,0.193,0.1928,0,0.1642,0.1689,0.1713,0.1725,0.1772,0.1792,0.1809,0.1851,0.1874,0.1948,0.1985,0.2032,0.2051,0.2077,0.2069,0.2015,0.2151,0.2057,0.2098,0.21,0.208,0.2076,0.2194,0.213,0.2129,0.2129,0.2128,0,0.1649,0.1671,0.1711,0.1732,0.176,0.1794,0.1831,0.1862,0.192,0.1959,0.2021,0.2072,0.21,0.2172,0.216,0.2222,0.2235,0.2169,0.2162,0.211,0.2106,0.2082,0.2043,0.2137,0.2135,0.2133,0.2132,0,0.1635,0.1666,0.1697,0.1747,0.1758,0.1777,0.1822,0.1848,0.1919,0.1983,0.2017,0.2129,0.2241,0.2297,0.2353,0.2334,0.2321,0.2385,0.2361,0.2347,0.2327,0.2293,0.2234,0.2177,0.2491,0.2493,0.2494,0,0.1632,0.1646,0.1687,0.1699,0.172,0.1751,0.1764,0.1828,0.1858,0.2003,0.2034,0.2195,0.2284,0.2444,0.2473,0.2557,0.2408,0.2539,0.24,0.2384,0.234,0.2124,0.2063,0.2431,0.2432,0.2433,0.2433,0,0.1615,0.1623,0.1641,0.1671,0.1687,0.1708,0.174,0.1765,0.1851,0.1929,0.2047,0.2147,0.2347,0.2442,0.2577,0.2583,0.2425,0.2554,0.2528,0.2327,0.2109,0.203,0.2276,0.2439,0.2438,0.2438,0.2438,0.2438,0.157,0.1577,0.1599,0.1624,0.1644,0.1663,0.1671,0.172,0.1781,0.1891,0.2005,0.2141,0.2358,0.2553,0.2561,0.2596,0.2468,0.2523,0.2501,0.2297,0.2173,0.2471,0.2607,0.2607,0.2607,0.2608,0.2608,0,0.1509,0.1531,0.1551,0.1582,0.1596,0.1627,0.1649,0.1653,0.1709,0.1835,0.1942,0.2176,0.2328,0.247,0.2606,0.2556,0.2355,0.2499,0.2204,0.216,0.2458,0.2389,0.2493,0.2493,0.2493,0.2493,0.2493,0.2493,0.1477,0.149,0.1518,0.1534,0.1554,0.1554,0.1561,0.1574,0.1641,0.176,0.1889,0.2019,0.2282,0.249,0.2532,0.249,0.2278,0.2172,0.2131,0.2386,0.2385,0.2383,0.231,0.2396,0.2396,0.1716,0.1711,0.1708]},{"header":{"parameterUnit":"m.s-1","parameterCategory":2,"la1":30.2991,"la2":30.254,"lo1":-89.0895,"lo2":-89.0444,"dy":0.0017,"dx":0.0017,"nx":28,"ny":28,"refTime":"2024-06-01T03:00:00:Z","depth":"0","parameterNumber":3,"parameterNumberName":"V-component_of_CURRENTS"},"data":[0,0,0,0,0,0,0,0,0,0,0,0,0,0,0,0,0,0,0,0,0,0,0,0,0,0,0,0,0,0,0,0,0,0,0,0,0,0,0,0,0,0,0,0,0,0,0,0,0,0,0,0,0,0,0,0,0,0,0.0388,0.0388,0,0.0338,0.0337,0.0336,0.0319,0.032,0.032,0.0321,0.0262,0.026,0.0258,0,0,0,0,0,0,0,0,0,0,0,0,0,0.0435,0.0435,0.0388,0.0388,0.0388,0.0338,0.0337,0.0336,0.0319,0.032,0.0321,0.0321,0.0262,0.026,0.0258,0,0,0,0,0,0,0,0,0,0,0,0,0,0.04,0.0434,0.0388,0.0376,0.0374,0.0338,0.0337,0.0336,0.0319,0.032,0.0321,0.0321,0.0263,0.026,0.0257,0.0224,0,0,0.0248,0.0247,0,0,0,0,0,0,0,0,0.0402,0.0398,0.0378,0.0376,0.0375,0.0338,0.0332,0.0299,0.0319,0.0337,0.0321,0.0322,0.0288,0.0283,0.0268,0.0221,0.0219,0.0248,0.0246,0.0245,0.0244,0,0,0,0,0,0,0,0.0405,0.04,0.0365,0.0377,0.0376,0.036,0.0356,0.0325,0.0307,0.0335,0.0335,0.0334,0.0287,0.0271,0.0266,0.0218,0.0248,0.0245,0.0243,0.0242,0.0174,0.0174,0,0,0,0,0,0,0.0418,0.0402,0.0367,0.0364,0.0394,0.0359,0.0354,0.0347,0.0307,0.0303,0.0333,0.0333,0.0275,0.027,0.0264,0.0242,0.0245,0.0242,0.024,0.0174,0.0174,0.0174,0,0,0,0,0,0,0.0419,0.0415,0.0369,0.0385,0.0379,0.0358,0.0349,0.0346,0.0334,0.0306,0.0301,0.0327,0.0276,0.0268,0.0239,0.0239,0.024,0.0238,0.0174,0.0174,0.0174,0.0185,0,0,0,0,0,0,0.042,0.0415,0.0411,0.0386,0.0378,0.0354,0.0349,0.0344,0.0333,0.0333,0.0299,0.0294,0.0276,0.0243,0.0236,0.0235,0.0235,0.0174,0.0174,0.0174,0.0185,0.0185,0.0186,0,0,0,0,0,0.0422,0.0426,0.0411,0.0407,0.0374,0.0354,0.0348,0.0335,0.0333,0.0327,0.0303,0.0295,0.0239,0.024,0.0231,0.023,0.0174,0.0174,0.0174,0.0184,0.0185,0.0186,0,0,0,0,0,0,0.0445,0.0423,0.0407,0.0403,0.0379,0.0353,0.0347,0.0335,0.031,0.0311,0.0284,0.0276,0.0252,0.0239,0.0241,0.0212,0.0209,0.0208,0.022,0.0221,0.0222,0.0246,0.0233,0,0,0,0,0,0.0446,0.0447,0.0413,0.0412,0.0396,0.0368,0.0357,0.0348,0.0325,0.0315,0.0288,0.0266,0.0243,0.0231,0.0207,0.0183,0.0191,0.0181,0.0182,0.0182,0.0197,0.0221,0.0226,0.0174,0.0174,0.0174,0,0,0.0456,0.0446,0.0445,0.0417,0.0394,0.0378,0.0363,0.0351,0.0341,0.0312,0.0285,0.0261,0.0237,0.0213,0.0203,0.0203,0.0195,0.0182,0.0183,0.0198,0.0222,0.0227,0.0231,0.0174,0.0174,0.0174,0,0,0.0478,0.046,0.0459,0.0443,0.0417,0.0394,0.0392,0.0357,0.0341,0.0309,0.0293,0.0274,0.0225,0.0218,0.0206,0.0197,0.0197,0.0187,0.021,0.0232,0.0237,0.0242,0.0235,0.0239,0.019,0.019,0.019,0,0.0479,0.0485,0.0456,0.045,0.0444,0.0402,0.0397,0.037,0.0333,0.0327,0.0305,0.0263,0.0232,0.0229,0.022,0.02,0.0205,0.0206,0.0235,0.024,0.0244,0.0237,0.0241,0.0191,0.0191,0.0191,0.0191,0,0.0503,0.0501,0.0501,0.0476,0.046,0.0457,0.0413,0.0396,0.0366,0.0344,0.0325,0.0283,0.0272,0.025,0.0222,0.0241,0.023,0.0231,0.0236,0.025,0.0241,0.0245,0.0192,0.0191,0.0191,0.0191,0,0,0.0515,0.0513,0.0514,0.0516,0.0481,0.0473,0.045,0.0425,0.0434,0.0378,0.0394,0.033,0.0321,0.0309,0.0284,0.0286,0.0296,0.027,0.027,0.0268,0.033,0.0301,0.0303,0.0307,0.0309,0.031,0.0302,0,0.0533,0.0549,0.0537,0.0545,0.0543,0.0511,0.0506,0.0482,0.045,0.0452,0.0411,0.0409,0.0341,0.0349,0.0336,0.0318,0.0312,0.0297,0.0313,0.0313,0.0291,0.0309,0.0306,0.0299,0.0307,0.0307,0.0308,0,0.055,0.0569,0.0583,0.0599,0.0594,0.0591,0.0592,0.0582,0.0567,0.0548,0.0532,0.0509,0.0494,0.0447,0.0414,0.041,0.0371,0.0344,0.0344,0.0323,0.0294,0.029,0.0307,0.0223,0.0314,0.0314,0.0313,0,0.0581,0.0595,0.0617,0.062,0.0624,0.0632,0.0632,0.0617,0.063,0.0623,0.0646,0.061,0.0619,0.0568,0.0483,0.0464,0.0453,0.0428,0.036,0.0356,0.0361,0.0356,0.0309,0.0418,0.0418,0.0418,0.0418,0,0.0608,0.0628,0.064,0.0656,0.0699,0.0682,0.0718,0.071,0.073,0.0768,0.0711,0.0745,0.0655,0.0628,0.0535,0.0458,0.0494,0.0373,0.0364,0.036,0.0356,0.0289,0.0247,0.0418,0.0418,0.0418,0.0418,0,0.0634,0.0641,0.0672,0.0698,0.0711,0.074,0.0777,0.0809,0.0818,0.0875,0.0888,0.0865,0.0824,0.0719,0.0644,0.0539,0.0421,0.0425,0.0406,0.0395,0.0245,0.0204,0.0174,0.0158,0.0357,0.0356,0.0356,0,0.0649,0.0669,0.0703,0.0732,0.0745,0.0788,0.0824,0.0845,0.0887,0.0948,0.0994,0.0981,0.0974,0.0832,0.0652,0.0498,0.0422,0.0388,0.0349,0.0245,0.0193,0.017,0.0158,0.0347,0.0346,0.0346,0.0346,0,0.0685,0.0688,0.071,0.0777,0.0819,0.0874,0.0932,0.0988,0.1032,0.1089,0.1164,0.1174,0.1032,0.0887,0.0663,0.0534,0.0342,0.0374,0.0291,0.0204,0.0157,0.0135,0.0318,0.0342,0.0342,0.0342,0.0343,0.0343,0.0695,0.0725,0.0756,0.0815,0.0879,0.0966,0.1031,0.111,0.1207,0.1331,0.1307,0.1368,0.1142,0.0837,0.0617,0.0281,0.0314,0.02,0.0164,0.0154,0.0129,0.0285,0.0284,0.0284,0.0284,0.0284,0.0284,0,0.0698,0.0738,0.0799,0.0879,0.0967,0.0995,0.1111,0.1196,0.1334,0.1459,0.1531,0.1503,0.1175,0.0851,0.0386,0.0134,0.0048,0.0017,-0.0013,-0.0011,0.0149,0.0137,0.0076,0.0076,0.0076,0.0076,0.0077,0.0077,0.0695,0.0749,0.079,0.0938,0.1015,0.1143,0.1222,0.136,0.1485,0.1688,0.1794,0.1853,0.1681,0.0733,0.0133,-0.0025,-0.0152,-0.0202,-0.0236,-0.0145,-0.013,-0.0117,-0.0138,-0.0256,-0.0257,-0.0366,-0.0368,-0.0369]}],[{"header":{"parameterUnit":"m.s-1","parameterCategory":2,"la1":30.2991,"la2":30.254,"lo1":-89.0895,"lo2":-89.0444,"dy":0.0017,"dx":0.0017,"nx":28,"ny":28,"refTime":"2024-06-01T03:00:00:Z","depth":"2","parameterNumber":2,"parameterNumberName":"U-component_of_CURRENTS"},"data":[0,0,0,0,0,0,0,0,0,0,0,0,0,0,0,0,0,0,0,0,0,0,0,0,0,0,0,0,0,0,0,0,0,0,0,0,0,0,0,0,0,0,0,0,0,0,0,0,0,0,0,0,0,0,0,0,0,0,0.1383,0.1383,0,0.1334,0.1333,0.1332,0.1314,0.1314,0.1315,0.1315,0.1271,0.1269,0.1268,0,0,0,0,0,0,0,0,0,0,0,0,0,0.1424,0.1424,0.1383,0.1383,0.1382,0.1334,0.1333,0.1332,0.1314,0.1314,0.1315,0.1315,0.1271,0.1269,0.1267,0,0,0,0,0,0,0,0,0,0,0,0,0,0.1391,0.1424,0.1383,0.137,0.1368,0.1334,0.1333,0.1331,0.1314,0.1314,0.1315,0.1316,0.1272,0.127,0.1267,0.1239,0,0,0.126,0.1259,0,0,0,0,0,0,0,0,0.1393,0.1389,0.1372,0.1371,0.1369,0.1333,0.1331,0.1302,0.1313,0.1331,0.1315,0.1316,0.1294,0.1289,0.1274,0.1237,0.1235,0.126,0.1258,0.1257,0.1256,0,0,0,0,0,0,0,0.1395,0.1391,0.136,0.1372,0.137,0.1354,0.135,0.1325,0.1307,0.133,0.1329,0.1328,0.1292,0.1276,0.1273,0.1234,0.126,0.1258,0.1256,0.1255,0.1199,0.1199,0,0,0,0,0,0,0.1409,0.1393,0.1362,0.1359,0.1386,0.1353,0.1348,0.1341,0.1307,0.1303,0.1328,0.1327,0.128,0.1276,0.1271,0.1285,0.1257,0.1255,0.1254,0.1199,0.1199,0.1199,0,0,0,0,0,0,0.141,0.1406,0.1364,0.1378,0.1372,0.1352,0.1344,0.134,0.1338,0.1306,0.1302,0.1332,0.1281,0.1275,0.1258,0.1282,0.1254,0.1252,0.1199,0.1199,0.1199,0.1281,0,0,0,0,0,0,0.1411,0.1406,0.1406,0.1379,0.1372,0.1361,0.1344,0.1339,0.1338,0.1337,0.1308,0.1304,0.1281,0.1261,0.1255,0.1278,0.125,0.1199,0.1199,0.1199,0.1278,0.1284,0.1288,0,0,0,0,0,0.1412,0.1421,0.1406,0.1402,0.1371,0.1361,0.1356,0.1342,0.1338,0.1342,0.1316,0.1306,0.1257,0.1259,0.1252,0.1275,0.1199,0.1199,0.1199,0.1276,0.1282,0.1288,0,0,0,0,0,0,0.1432,0.1419,0.1402,0.1403,0.1388,0.136,0.1369,0.1351,0.1332,0.1338,0.1301,0.1295,0.1287,0.1262,0.1266,0.1255,0.1227,0.1226,0.1288,0.1294,0.1299,0.1349,0.1248,0,0,0,0,0,0.1435,0.1444,0.1419,0.1419,0.142,0.1393,0.1388,0.1377,0.1357,0.135,0.1329,0.1303,0.1276,0.1273,0.1243,0.124,0.1262,0.1248,0.1253,0.1257,0.1291,0.1314,0.1326,0.1198,0.1198,0.1198,0,0,0.1447,0.1437,0.1443,0.1425,0.1417,0.1426,0.1392,0.1398,0.1408,0.1348,0.1361,0.1317,0.1275,0.1268,0.1264,0.1257,0.1311,0.1257,0.1262,0.1293,0.1316,0.1329,0.134,0.1198,0.1198,0.1198,0,0,0.1481,0.1465,0.1489,0.1483,0.1477,0.1459,0.1466,0.1447,0.1446,0.1441,0.1396,0.137,0.1341,0.1312,0.1294,0.1307,0.1328,0.1297,0.1376,0.1398,0.141,0.1421,0.15,0.1517,0.1309,0.1309,0.1309,0,0.1494,0.1503,0.1493,0.1513,0.1511,0.1482,0.1499,0.1499,0.1474,0.1476,0.1463,0.1414,0.1367,0.1359,0.1362,0.1324,0.1364,0.136,0.1409,0.142,0.143,0.1508,0.1526,0.1313,0.1313,0.1312,0.1312,0,0.154,0.1549,0.1567,0.1579,0.1581,0.1589,0.1586,0.1592,0.1584,0.1573,0.1571,0.1512,0.1489,0.146,0.1419,0.1452,0.1471,0.1409,0.1406,0.1448,0.1527,0.1544,0.1319,0.1317,0.1316,0.1315,0,0,0.1553,0.1591,0.1593,0.1604,0.1609,0.1612,0.1648,0.1653,0.1678,0.167,0.1703,0.1645,0.1623,0.1601,0.1542,0.156,0.165,0.1531,0.153,0.1633,0.1765,0.1765,0.1784,0.1606,0.1608,0.161,0.1807,0,0.158,0.1624,0.1633,0.1668,0.1686,0.1681,0.1711,0.1722,0.173,0.1761,0.1735,0.1735,0.1677,0.1664,0.1679,0.1642,0.1695,0.1607,0.1689,0.1693,0.1705,0.1802,0.1595,0.1751,0.1824,0.1827,0.1829,0,0.1602,0.163,0.1669,0.1701,0.171,0.1729,0.1758,0.1782,0.1826,0.1837,0.1862,0.1853,0.1881,0.1813,0.1864,0.182,0.1822,0.1805,0.1811,0.1798,0.1723,0.1709,0.1779,0.1857,0.1855,0.1853,0.1851,0,0.1594,0.1641,0.1667,0.1678,0.1724,0.1743,0.176,0.18,0.1822,0.1893,0.1928,0.197,0.1988,0.201,0.1998,0.1946,0.2073,0.1979,0.2001,0.2003,0.1838,0.1821,0.2046,0.2046,0.2045,0.2045,0.2044,0,0.1598,0.1622,0.1666,0.1685,0.1715,0.1749,0.1785,0.1814,0.187,0.1907,0.1966,0.2014,0.2036,0.2103,0.2086,0.2134,0.2154,0.207,0.206,0.1863,0.1846,0.1923,0.1906,0.2052,0.205,0.2049,0.2048,0,0.1583,0.1618,0.1651,0.1701,0.1712,0.1734,0.1778,0.1804,0.1874,0.1935,0.1968,0.2074,0.2174,0.2223,0.2269,0.2241,0.2271,0.2275,0.2084,0.2047,0.2177,0.2162,0.2349,0.235,0.2352,0.2353,0.2354,0,0.158,0.1588,0.1638,0.1654,0.1676,0.171,0.1724,0.1787,0.1817,0.1956,0.1985,0.2135,0.2199,0.2336,0.2318,0.2372,0.2365,0.2222,0.2059,0.2241,0.2212,0.2194,0.2177,0.1891,0.1888,0.1885,0.1884,0,0.1551,0.156,0.1586,0.1618,0.1639,0.1666,0.17,0.1725,0.181,0.188,0.1988,0.2064,0.2201,0.2174,0.2268,0.2243,0.2199,0.2179,0.242,0.184,0.1822,0.1789,0.1785,0.1863,0.1865,0.1866,0.1868,0.1868,0.1507,0.151,0.1532,0.1568,0.1594,0.162,0.1618,0.1671,0.1724,0.1804,0.1911,0.1961,0.2004,0.204,0.2015,0.2009,0.2134,0.2024,0.2025,0.203,0.1936,0.1921,0.1967,0.197,0.1972,0.1974,0.1976,0,0.144,0.1459,0.1477,0.1518,0.1525,0.1573,0.1592,0.1574,0.1612,0.1697,0.1766,0.1653,0.1667,0.1731,0.1676,0.1704,0.1609,0.1652,0.1496,0.152,0.154,0.1413,0.131,0.1308,0.1306,0.1304,0,0,0.1405,0.1415,0.144,0.145,0.1474,0.1473,0.1477,0.1452,0.1472,0.1463,0.1473,0.1587,0.1662,0.1451,0.1445,0.1374,0.1421,0.1318,0.1853,0.1691,0.1708,0.1765,0.1601,0,0,0,0,0]},{"header":{"parameterUnit":"m.s-1","parameterCategory":2,"la1":30.2991,"la2":30.254,"lo1":-89.0895,"lo2":-89.0444,"dy":0.0017,"dx":0.0017,"nx":28,"ny":28,"refTime":"2024-06-01T03:00:00:Z","depth":"2","parameterNumber":3,"parameterNumberName":"V-component_of_CURRENTS"},"data":[0,0,0,0,0,0,0,0,0,0,0,0,0,0,0,0,0,0,0,0,0,0,0,0,0,0,0,0,0,0,0,0,0,0,0,0,0,0,0,0,0,0,0,0,0,0,0,0,0,0,0,0,0,0,0,0,0,0,0.0287,0.0287,0,0.0243,0.0242,0.0242,0.0231,0.0232,0.0233,0.0233,0.0182,0.0181,0.0179,0,0,0,0,0,0,0,0,0,0,0,0,0,0.0337,0.0336,0.0287,0.0287,0.0286,0.0243,0.0242,0.0241,0.0231,0.0232,0.0233,0.0233,0.0183,0.0181,0.0179,0,0,0,0,0,0,0,0,0,0,0,0,0,0.0303,0.0336,0.0287,0.0279,0.0278,0.0243,0.0242,0.0241,0.0231,0.0232,0.0233,0.0234,0.0184,0.0181,0.0178,0.0143,0,0,0.0169,0.0168,0,0,0,0,0,0,0,0,0.0305,0.0301,0.028,0.0279,0.0278,0.0246,0.0241,0.0209,0.0231,0.0245,0.0233,0.0234,0.0205,0.02,0.0185,0.014,0.0138,0.0169,0.0167,0.0166,0.0165,0,0,0,0,0,0,0,0.0308,0.0303,0.0266,0.028,0.0279,0.0269,0.0265,0.0235,0.0218,0.0244,0.0244,0.0244,0.0204,0.0188,0.0184,0.0137,0.0169,0.0167,0.0165,0.0164,0.0101,0.0101,0,0,0,0,0,0,0.032,0.0305,0.0268,0.0265,0.0298,0.0267,0.0263,0.0253,0.0218,0.0215,0.0243,0.0244,0.0193,0.0188,0.0182,0.0164,0.0166,0.0164,0.0162,0.0101,0.0101,0.0102,0,0,0,0,0,0,0.0321,0.0316,0.027,0.0287,0.0281,0.0266,0.0255,0.0252,0.0243,0.0218,0.0214,0.024,0.0193,0.0186,0.0161,0.0161,0.0162,0.016,0.0101,0.0101,0.0101,0.011,0,0,0,0,0,0,0.0322,0.0316,0.0312,0.0288,0.0281,0.0257,0.0254,0.025,0.0243,0.0243,0.0214,0.021,0.0193,0.0165,0.0158,0.0157,0.0157,0.0101,0.0101,0.0101,0.011,0.011,0.0111,0,0,0,0,0,0.0324,0.0325,0.0312,0.0308,0.0275,0.0257,0.0252,0.0242,0.0242,0.0238,0.0217,0.0211,0.0161,0.0162,0.0154,0.0152,0.0101,0.0101,0.0101,0.0109,0.011,0.0111,0,0,0,0,0,0,0.0345,0.0324,0.0309,0.0303,0.0282,0.0257,0.0253,0.0244,0.0222,0.0224,0.02,0.0194,0.0173,0.0161,0.0162,0.0137,0.0134,0.0133,0.0143,0.0144,0.0145,0.0166,0.0155,0,0,0,0,0,0.0346,0.0347,0.0314,0.0312,0.0296,0.0271,0.0263,0.0256,0.0236,0.0228,0.0204,0.0184,0.0164,0.0154,0.0132,0.0109,0.0114,0.0108,0.0108,0.0109,0.0122,0.014,0.0144,0.0102,0.0102,0.0102,0,0,0.0356,0.0346,0.0345,0.0317,0.0296,0.0281,0.0268,0.0259,0.025,0.0224,0.0202,0.0181,0.0158,0.0137,0.0128,0.0128,0.0118,0.0109,0.011,0.0123,0.014,0.0145,0.0148,0.0102,0.0102,0.0102,0,0,0.0378,0.0359,0.0359,0.0344,0.0321,0.0298,0.0297,0.0265,0.0251,0.0222,0.0209,0.0192,0.0149,0.0141,0.013,0.0122,0.0119,0.0114,0.0134,0.015,0.0154,0.0158,0.0147,0.015,0.0117,0.0117,0.0117,0,0.038,0.0385,0.0358,0.0352,0.0347,0.0307,0.0303,0.0277,0.0245,0.0239,0.022,0.0182,0.0154,0.015,0.0142,0.0124,0.0126,0.013,0.0152,0.0156,0.016,0.0148,0.0151,0.0117,0.0117,0.0117,0.0117,0,0.0405,0.0403,0.0403,0.0381,0.0365,0.0362,0.032,0.0304,0.0277,0.0255,0.0238,0.02,0.019,0.0169,0.0145,0.0158,0.0147,0.0149,0.0152,0.0165,0.0151,0.0154,0.0118,0.0118,0.0118,0.0117,0,0,0.0417,0.0417,0.0418,0.042,0.0386,0.0378,0.0356,0.033,0.0339,0.0287,0.0301,0.0242,0.0234,0.0223,0.0199,0.0197,0.02,0.0182,0.0183,0.0174,0.0221,0.018,0.0179,0.021,0.0211,0.0212,0.0193,0,0.0437,0.0454,0.0442,0.0451,0.0449,0.0416,0.0411,0.0387,0.0356,0.0356,0.0316,0.0315,0.0251,0.0261,0.0244,0.0222,0.0212,0.0204,0.0208,0.0208,0.0174,0.0183,0.0147,0.0125,0.0195,0.0196,0.0196,0,0.0453,0.0474,0.0489,0.0504,0.0499,0.0497,0.0495,0.0486,0.0467,0.0448,0.0431,0.0409,0.039,0.0348,0.0305,0.0305,0.0264,0.0235,0.0234,0.0201,0.0173,0.0129,0.0128,0.0201,0.0201,0.02,0.02,0,0.0483,0.0499,0.0522,0.0525,0.053,0.0537,0.0537,0.0521,0.0532,0.0522,0.0544,0.0502,0.051,0.0453,0.0366,0.0349,0.0324,0.0301,0.022,0.0216,0.019,0.0182,0.0284,0.0284,0.0284,0.0284,0.0284,0,0.0507,0.053,0.0546,0.0562,0.0606,0.0589,0.0624,0.0615,0.0632,0.0667,0.0609,0.0639,0.0542,0.0508,0.0412,0.032,0.0361,0.0228,0.0217,0.0187,0.018,0.0255,0.0252,0.0283,0.0283,0.0283,0.0283,0,0.0528,0.0542,0.0575,0.0603,0.0617,0.0649,0.0685,0.0716,0.0724,0.0776,0.0789,0.0758,0.0704,0.0592,0.0505,0.0394,0.0306,0.0265,0.0217,0.02,0.0169,0.0166,0.0174,0.0173,0.0172,0.0171,0.017,0,0.0545,0.0553,0.0603,0.0637,0.0652,0.0698,0.0735,0.0755,0.0795,0.0849,0.0891,0.0867,0.083,0.0664,0.047,0.0296,0.0307,0.0166,0.0123,0.0174,0.0162,0.0161,0.0161,0.008,0.0078,0.0077,0.0076,0,0.0561,0.0567,0.0604,0.0671,0.0719,0.0783,0.0842,0.0896,0.0938,0.0985,0.1047,0.1028,0.0848,0.0648,0.0399,0.0273,0.0183,0.0134,0.023,0.0111,0.0083,0.0072,0.0075,0.0065,0.0066,0.0067,0.0068,0.0068,0.0572,0.0598,0.0634,0.0704,0.0774,0.087,0.0922,0.1006,0.1092,0.1178,0.1148,0.1108,0.0862,0.0517,0.0301,0.0087,0.0106,0.0026,0.0031,0.0037,0.0027,-0.0001,-0.0038,-0.0038,-0.0037,-0.0037,-0.0037,0,0.0565,0.0602,0.0662,0.0755,0.0825,0.0881,0.0995,0.1053,0.117,0.1239,0.1266,0.0999,0.0747,0.0509,0.016,-0.0055,-0.0078,-0.0102,-0.0082,-0.0071,-0.0061,-0.0074,-0.0167,-0.0168,-0.0168,-0.0169,0,0,0.0559,0.0613,0.0651,0.0777,0.0855,0.0987,0.1064,0.1166,0.1231,0.1284,0.1258,0.1153,0.0816,0.0543,0.0241,0.0058,0.0052,0.0012,0.0131,0.0199,0.0212,0.0014,0.0005,0,0,0,0,0]}],[{"header":{"parameterUnit":"m.s-1","parameterCategory":2,"la1":30.2991,"la2":30.254,"lo1":-89.0895,"lo2":-89.0444,"dy":0.0017,"dx":0.0017,"nx":28,"ny":28,"refTime":"2024-06-01T03:00:00:Z","depth":"4","parameterNumber":2,"parameterNumberName":"U-component_of_CURRENTS"},"data":[0,0,0,0,0,0,0,0,0,0,0,0,0,0,0,0,0,0,0,0,0,0,0,0,0,0,0,0,0,0,0,0,0,0,0,0,0,0,0,0,0,0,0,0,0,0,0,0,0,0,0,0,0,0,0,0,0,0,0.0096,0.0098,0,0.0202,0.0202,0.0202,0.0306,0.0309,0.0312,0.0315,0.0395,0.0394,0.0394,0,0,0,0,0,0,0,0,0,0,0,0,0,0.0022,0.0021,0.0096,0.0099,0.0102,0.0203,0.0202,0.0202,0.0306,0.0309,0.0313,0.0316,0.0395,0.0395,0.0394,0,0,0,0,0,0,0,0,0,0,0,0,0,0.0066,0.002,0.0095,0.0179,0.0188,0.0203,0.0202,0.0202,0.0305,0.0309,0.0314,0.0318,0.0396,0.0395,0.0394,0.0298,0,0,0.0391,0.039,0,0,0,0,0,0,0,0,0.0063,0.0066,0.0163,0.0173,0.0184,0.0261,0.0207,0.0239,0.0304,0.0242,0.0315,0.032,0.0356,0.0359,0.0344,0.0302,0.0305,0.0391,0.039,0.039,0.0389,0,0,0,0,0,0,0,0.006,0.0063,0.012,0.0167,0.0179,0.0226,0.0235,0.0212,0.0258,0.0248,0.026,0.0299,0.036,0.0344,0.0347,0.0306,0.0391,0.039,0.0389,0.0389,0.0352,0.0351,0,0,0,0,0,0,0.0075,0.0059,0.0117,0.0125,0.0154,0.0225,0.0234,0.0217,0.0259,0.0276,0.0295,0.0304,0.0344,0.0348,0.035,0.0393,0.039,0.0389,0.0388,0.0352,0.0351,0.0351,0,0,0,0,0,0,0.0072,0.0077,0.0113,0.0113,0.0123,0.0223,0.0203,0.0218,0.0246,0.0299,0.0312,0.0316,0.0347,0.0351,0.0379,0.0392,0.0388,0.0387,0.0352,0.0352,0.0351,0.0381,0,0,0,0,0,0,0.0068,0.0073,0.0067,0.0111,0.0124,0.0144,0.0201,0.0217,0.0269,0.0282,0.0319,0.033,0.0351,0.0381,0.0378,0.0391,0.0387,0.0353,0.0352,0.0351,0.0381,0.0382,0.0383,0,0,0,0,0,0.0064,0.0044,0.0063,0.0073,0.0109,0.0146,0.0153,0.023,0.0266,0.0269,0.0314,0.0331,0.0375,0.0379,0.0376,0.0389,0.0353,0.0352,0.0351,0.038,0.0382,0.0383,0,0,0,0,0,0,0.006,0.0055,0.0078,0.0072,0.012,0.0171,0.0179,0.0231,0.0259,0.0277,0.0319,0.0331,0.0359,0.0356,0.036,0.0374,0.0367,0.0365,0.039,0.0391,0.0391,0.0469,0.0386,0,0,0,0,0,0.0041,-0.0013,0.0044,0.0042,0.005,0.0108,0.0136,0.0192,0.0234,0.0252,0.0296,0.0323,0.0336,0.0356,0.036,0.0356,0.0392,0.0362,0.0363,0.0364,0.0424,0.0488,0.0502,0.0348,0.0348,0.0348,0,0,0.0058,0.0038,0.0026,0.0033,0.0052,0.0054,0.0129,0.017,0.0194,0.025,0.0281,0.0322,0.0334,0.0352,0.0363,0.0364,0.0411,0.0363,0.0364,0.0425,0.0489,0.0504,0.0518,0.0347,0.0348,0.0348,0,0,0.0043,0.0017,-0.0028,-0.0024,0.0014,0.0036,0.0053,0.0118,0.0162,0.0197,0.0253,0.0335,0.0317,0.0381,0.0391,0.0392,0.041,0.0362,0.0441,0.05,0.0515,0.0529,0.0541,0.0556,0.037,0.037,0.037,0,0.0043,0.0013,-0.0016,-0.0055,-0.004,0.0021,0.0022,0.0044,0.0133,0.019,0.0212,0.0332,0.0343,0.0427,0.0442,0.0404,0.0421,0.0437,0.0507,0.0522,0.0536,0.0546,0.0562,0.0371,0.0371,0.0371,0.0371,0,0.001,-0.0011,-0.004,-0.0102,-0.0098,-0.0086,-0.0051,-0.0011,0.0052,0.0127,0.0255,0.033,0.0448,0.0427,0.0436,0.0544,0.0515,0.0497,0.0516,0.0554,0.0559,0.0576,0.0373,0.0372,0.0372,0.0372,0,0,-0.0024,-0.0063,-0.0072,-0.008,-0.0114,-0.0104,-0.0103,-0.0034,0.0057,0.0145,0.0293,0.0358,0.0506,0.0535,0.0594,0.065,0.0734,0.0627,0.0629,0.0661,0.0839,0.075,0.0759,0.0727,0.0731,0.0734,0.0785,0,-0.0039,-0.0083,-0.0114,-0.0135,-0.0142,-0.0131,-0.0122,-0.0054,0.0056,0.0205,0.0337,0.0497,0.0508,0.0641,0.0697,0.0745,0.0788,0.0722,0.0782,0.0784,0.072,0.078,0.0748,0.0797,0.0801,0.0804,0.0806,0,-0.0066,-0.0088,-0.0102,-0.011,-0.0116,-0.0133,-0.005,-0.0002,0.0172,0.0292,0.0504,0.0635,0.0812,0.0803,0.0938,0.0895,0.0893,0.0894,0.0895,0.0837,0.073,0.0762,0.0836,0.0833,0.0831,0.0829,0.0827,0,-0.0046,-0.0085,-0.0085,-0.0101,-0.0108,-0.0105,-0.0084,0.0044,0.0129,0.0428,0.0562,0.0788,0.0925,0.1,0.1044,0.101,0.1133,0.1072,0.0981,0.0972,0.1023,0.1008,0.1157,0.1157,0.1157,0.1156,0.1156,0,-0.006,-0.0061,-0.007,-0.0079,-0.0068,-0.0065,0.0022,0.0113,0.029,0.0441,0.0666,0.0823,0.098,0.1069,0.1094,0.1104,0.1181,0.104,0.1007,0.102,0.1005,0.1031,0.1016,0.1158,0.1158,0.1158,0.1157,0,-0.0045,-0.0043,-0.0042,-0.0048,-0.0063,-0.0032,0.0005,0.0111,0.03,0.0517,0.0627,0.0836,0.0978,0.1081,0.1178,0.1139,0.118,0.1146,0.1156,0.1115,0.0956,0.0942,0.1072,0.107,0.1068,0.1067,0.1066,0,-0.0039,-0.0034,-0.0041,-0.0039,-0.0055,-0.0021,0.0001,0.0122,0.0241,0.0512,0.0604,0.0797,0.0944,0.1022,0.1094,0.1166,0.1129,0.114,0.107,0.1007,0.0962,0.095,0.0938,0.1063,0.1062,0.1062,0.1061,0,-0.0039,-0.0034,-0.0037,-0.0027,-0.0024,-0.0007,0.0039,0.0101,0.0304,0.0446,0.0646,0.0778,0.0886,0.0973,0.1039,0.1069,0.1155,0.1121,0.1123,0.1058,0.0997,0.0951,0.0941,0.1055,0.1056,0.1057,0.1057,0,-0.0035,-0.0037,-0.0035,-0.0028,-0.0007,0.0019,0.0034,0.0134,0.0234,0.0522,0.055,0.0763,0.0874,0.0914,0.0974,0.1024,0.0987,0.0958,0.0968,0.0975,0.0921,0.0828,0.085,0,0,0,0,0,-0.005,-0.0055,-0.0048,-0.0019,0.0016,0.0013,0.0065,0.0105,0.0261,0.0402,0.0493,0.0631,0.0768,0.0806,0.0837,0.0871,0.0956,0.0896,0.0918,0.1022,0.1029,0.0974,0,0,0,0,0,0,-0.0043,-0.0048,-0.0054,-0.0011,0.0011,0.0044,0.0073,0.0164,0.0229,0.0396,0.0453,0.0587,0.0686,0.0771,0.0831,0.0847,0.0845,0.0986,0.0984,0.1018,0.1024,0.103,0.0976,0,0,0,0,0]},{"header":{"parameterUnit":"m.s-1","parameterCategory":2,"la1":30.2991,"la2":30.254,"lo1":-89.0895,"lo2":-89.0444,"dy":0.0017,"dx":0.0017,"nx":28,"ny":28,"refTime":"2024-06-01T03:00:00:Z","depth":"4","parameterNumber":3,"parameterNumberName":"V-component_of_CURRENTS"},"data":[0,0,0,0,0,0,0,0,0,0,0,0,0,0,0,0,0,0,0,0,0,0,0,0,0,0,0,0,0,0,0,0,0,0,0,0,0,0,0,0,0,0,0,0,0,0,0,0,0,0,0,0,0,0,0,0,0,0,-0.0066,-0.0066,0,-0.0056,-0.0056,-0.0056,-0.006,-0.006,-0.006,-0.0061,-0.0056,-0.0055,-0.0055,0,0,0,0,0,0,0,0,0,0,0,0,0,-0.0028,-0.0029,-0.0066,-0.0066,-0.0066,-0.0056,-0.0056,-0.0056,-0.006,-0.006,-0.006,-0.0061,-0.0056,-0.0055,-0.0055,0,0,0,0,0,0,0,0,0,0,0,0,0,-0.0033,-0.0029,-0.0066,-0.0068,-0.0068,-0.0056,-0.0056,-0.0056,-0.0059,-0.006,-0.0061,-0.0061,-0.0056,-0.0055,-0.0055,-0.0039,0,0,-0.0052,-0.0052,0,0,0,0,0,0,0,0,-0.0033,-0.0034,-0.0067,-0.0067,-0.0068,-0.0061,-0.0041,-0.0051,-0.0059,-0.0061,-0.0061,-0.0061,-0.0058,-0.0058,-0.0052,-0.0039,-0.0039,-0.0052,-0.0052,-0.0052,-0.0051,0,0,0,0,0,0,0,-0.0033,-0.0034,-0.006,-0.0067,-0.0067,-0.0049,-0.0051,-0.0043,-0.0056,-0.0061,-0.0062,-0.0063,-0.0058,-0.0053,-0.0052,-0.0039,-0.0052,-0.0052,-0.0051,-0.0051,-0.0005,-0.0004,0,0,0,0,0,0,-0.0039,-0.0034,-0.0061,-0.006,-0.0053,-0.005,-0.0051,-0.0061,-0.0056,-0.0056,-0.0062,-0.0063,-0.0054,-0.0053,-0.0052,-0.0052,-0.0052,-0.0051,-0.0051,-0.0006,-0.0005,-0.0004,0,0,0,0,0,0,-0.0039,-0.0042,-0.0061,-0.0048,-0.0049,-0.005,-0.0061,-0.0061,-0.0071,-0.0057,-0.0057,-0.0074,-0.0054,-0.0053,-0.0058,-0.0051,-0.0051,-0.005,-0.0007,-0.0005,-0.0004,-0.0041,0,0,0,0,0,0,-0.0038,-0.0042,-0.0053,-0.0049,-0.005,-0.0063,-0.0061,-0.006,-0.007,-0.0072,-0.0067,-0.0066,-0.0055,-0.0059,-0.0057,-0.005,-0.0049,-0.0008,-0.0006,-0.0005,-0.004,-0.0041,-0.0041,0,0,0,0,0,-0.0037,-0.0051,-0.0053,-0.0056,-0.0065,-0.0064,-0.0063,-0.0064,-0.0071,-0.0075,-0.0074,-0.0067,-0.0047,-0.0058,-0.0056,-0.0049,-0.0008,-0.0006,-0.0005,-0.004,-0.0041,-0.0041,0,0,0,0,0,0,-0.0049,-0.0053,-0.0055,-0.0074,-0.0072,-0.0065,-0.0066,-0.0073,-0.0075,-0.008,-0.007,-0.0069,-0.0064,-0.005,-0.0063,-0.0027,-0.002,-0.0018,-0.0048,-0.0048,-0.0049,-0.0073,-0.0049,0,0,0,0,0,-0.0055,-0.0075,-0.0064,-0.0089,-0.0075,-0.0073,-0.0075,-0.0081,-0.0081,-0.0083,-0.0086,-0.0074,-0.005,-0.0048,-0.0031,-0.0024,-0.004,-0.0011,-0.0012,-0.0012,-0.0028,-0.0046,-0.0051,0.0002,0.0002,0.0002,0,0,-0.0066,-0.0079,-0.0087,-0.0094,-0.0085,-0.0086,-0.0075,-0.0083,-0.0105,-0.0082,-0.0111,-0.0081,-0.0048,-0.0035,-0.003,-0.0028,-0.0035,-0.001,-0.0011,-0.0027,-0.0045,-0.0051,-0.0056,0.0003,0.0003,0.0003,0,0,-0.0091,-0.0103,-0.0107,-0.0107,-0.0106,-0.011,-0.0116,-0.0115,-0.0124,-0.0143,-0.0117,-0.0096,-0.0084,-0.0053,-0.0033,-0.0026,-0.0036,-0.0006,-0.0034,-0.0051,-0.0057,-0.0062,-0.01,-0.0108,-0.0007,-0.0008,-0.0008,0,-0.0097,-0.0118,-0.011,-0.0111,-0.0123,-0.0124,-0.0131,-0.0138,-0.0154,-0.016,-0.016,-0.0118,-0.0093,-0.0057,-0.0048,-0.003,-0.005,-0.0039,-0.0056,-0.0061,-0.0066,-0.0103,-0.0112,-0.0009,-0.0009,-0.0009,-0.0009,0,-0.0111,-0.0131,-0.0133,-0.0146,-0.0156,-0.017,-0.0172,-0.0199,-0.0217,-0.0215,-0.02,-0.0159,-0.0126,-0.0104,-0.0077,-0.0072,-0.0081,-0.0057,-0.0065,-0.0074,-0.0112,-0.012,-0.0011,-0.0011,-0.001,-0.001,0,0,-0.0117,-0.0134,-0.0137,-0.0149,-0.0179,-0.0186,-0.0231,-0.0249,-0.0259,-0.0268,-0.027,-0.0219,-0.018,-0.0153,-0.01,-0.0115,-0.016,-0.0105,-0.0105,-0.0162,-0.0224,-0.0193,-0.0199,-0.0146,-0.0147,-0.0148,-0.0242,0,-0.0128,-0.0137,-0.016,-0.0197,-0.0196,-0.0234,-0.0277,-0.0302,-0.0301,-0.0304,-0.0266,-0.0222,-0.0199,-0.0153,-0.0171,-0.0146,-0.0182,-0.0139,-0.019,-0.0192,-0.0179,-0.0207,-0.0152,-0.0249,-0.0251,-0.0252,-0.0253,0,-0.0131,-0.0143,-0.0159,-0.022,-0.0222,-0.0264,-0.0316,-0.035,-0.0355,-0.0333,-0.0298,-0.0248,-0.0229,-0.0207,-0.0236,-0.0211,-0.0231,-0.0237,-0.024,-0.0208,-0.0176,-0.0232,-0.0269,-0.0267,-0.0266,-0.0265,-0.0264,0,-0.0128,-0.0156,-0.0176,-0.019,-0.0243,-0.0289,-0.0342,-0.0365,-0.0365,-0.033,-0.0286,-0.0274,-0.0245,-0.0275,-0.0267,-0.0257,-0.0325,-0.0305,-0.0314,-0.0312,-0.0299,-0.0292,-0.0364,-0.0364,-0.0363,-0.0363,-0.0363,0,-0.0145,-0.0161,-0.0176,-0.0191,-0.0236,-0.0287,-0.0334,-0.0354,-0.0356,-0.0314,-0.0282,-0.0225,-0.0264,-0.0279,-0.0297,-0.0331,-0.035,-0.0339,-0.0336,-0.031,-0.0304,-0.0306,-0.0298,-0.0367,-0.0366,-0.0365,-0.0365,0,-0.0139,-0.0149,-0.0169,-0.0216,-0.0235,-0.0272,-0.0338,-0.0346,-0.0335,-0.0274,-0.0247,-0.0223,-0.0234,-0.0274,-0.0332,-0.0355,-0.0386,-0.0397,-0.0389,-0.038,-0.0368,-0.036,-0.0437,-0.0437,-0.0436,-0.0436,-0.0436,0,-0.0137,-0.0139,-0.0166,-0.017,-0.0198,-0.0253,-0.029,-0.0331,-0.0308,-0.0242,-0.0199,-0.0199,-0.0175,-0.0239,-0.0315,-0.0392,-0.0386,-0.0432,-0.0393,-0.0387,-0.0376,-0.0369,-0.0362,-0.0436,-0.0436,-0.0436,-0.0436,0,-0.013,-0.0134,-0.0141,-0.0137,-0.0169,-0.0197,-0.0242,-0.0218,-0.0221,-0.0197,-0.0095,-0.0092,-0.0131,-0.0208,-0.0281,-0.0325,-0.0413,-0.0429,-0.043,-0.0394,-0.0387,-0.0374,-0.0368,-0.0435,-0.0435,-0.0435,-0.0435,0,-0.0124,-0.0117,-0.0114,-0.0109,-0.0123,-0.0124,-0.0167,-0.0145,-0.0142,-0.0056,-0.0039,-0.0032,-0.0077,-0.0175,-0.0226,-0.0285,-0.0299,-0.0309,-0.0317,-0.0319,-0.0246,-0.0216,-0.0226,0,0,0,0,0,-0.0126,-0.0105,-0.0085,-0.0082,-0.0077,-0.0096,-0.0111,-0.0142,-0.0134,-0.0031,-0.0022,-0.0018,-0.0067,-0.0123,-0.0172,-0.0267,-0.0353,-0.0332,-0.0379,-0.043,-0.0431,-0.0361,0,0,0,0,0,0,-0.0127,-0.0112,-0.008,-0.0037,-0.0026,-0.004,-0.0054,-0.0052,-0.0014,0.0014,-0.0022,-0.0019,-0.0104,-0.0014,-0.016,-0.0188,-0.0223,-0.0371,-0.0372,-0.0429,-0.043,-0.0431,-0.0359,0,0,0,0,0]}]]